📊 Raw Sensor Data
Showing records 46676 to 46700 of 85,074 total
| ID | Distance (ft) | Battery V | Battery A | Int Temp (°F) | Int Humid (%) | Ext Temp (°F) | Solar V | RSSI | SNR | Time Stamp |
|---|---|---|---|---|---|---|---|---|---|---|
| 38411 | -- | 3.94 | -5 | 44 | 41 | 44 | 0.00 | -85 | 7 | 04/21/2025 04:15 AM |
| 38410 | -- | 3.88 | -5 | 44 | 41 | 46 | 0.10 | -84 | 8 | 04/21/2025 04:00 AM |
| 38409 | -- | 3.89 | -30 | 45 | 41 | 46 | 0.00 | -83 | 8 | 04/21/2025 03:45 AM |
| 38408 | 15.0 | 3.88 | -5 | 45 | 41 | 48 | 0.00 | -84 | 8 | 04/21/2025 03:30 AM |
| 38407 | 15.0 | 3.88 | -5 | 45 | 41 | 47 | 0.00 | -84 | 8 | 04/21/2025 03:15 AM |
| 38406 | 15.0 | 3.88 | -5 | 44 | 42 | 47 | 0.00 | -83 | 8 | 04/21/2025 03:00 AM |
| 38405 | 14.9 | 3.88 | -5 | 44 | 42 | 47 | 0.00 | -83 | 8 | 04/21/2025 02:45 AM |
| 38404 | 15.0 | 3.88 | -34 | 44 | 42 | 46 | 0.00 | -83 | 8 | 04/21/2025 02:30 AM |
| 38403 | 15.0 | 3.88 | -5 | 44 | 42 | 47 | 0.00 | -83 | 9 | 04/21/2025 02:15 AM |
| 38402 | 15.0 | 3.88 | -5 | 44 | 42 | 47 | 0.00 | -83 | 8 | 04/21/2025 02:00 AM |
| 38401 | -- | 3.88 | -5 | 45 | 42 | 48 | 0.00 | -82 | 8 | 04/21/2025 01:46 AM |
| 38400 | -- | 3.89 | -5 | 45 | 42 | 47 | 0.00 | -83 | 8 | 04/21/2025 01:30 AM |
| 38399 | -- | 3.89 | -5 | 45 | 43 | 47 | 0.00 | -81 | 8 | 04/21/2025 01:15 AM |
| 38398 | 15.0 | 3.89 | -5 | 45 | 43 | 48 | 0.00 | -83 | 8 | 04/21/2025 01:00 AM |
| 38397 | 15.0 | 3.89 | -5 | 46 | 43 | 48 | 0.00 | -82 | 8 | 04/21/2025 12:45 AM |
| 38396 | 15.0 | 3.89 | -5 | 46 | 43 | 47 | 0.10 | -82 | 8 | 04/21/2025 12:30 AM |
| 38395 | 15.0 | 3.89 | -5 | 47 | 43 | 48 | 0.00 | -81 | 8 | 04/21/2025 12:15 AM |
| 38394 | 15.0 | 3.89 | -5 | 47 | 44 | 49 | 0.00 | -82 | 8 | 04/21/2025 12:00 AM |
| 38393 | -- | 3.89 | -5 | 48 | 44 | 50 | 0.00 | -80 | 8 | 04/20/2025 11:45 PM |
| 38392 | -- | 3.95 | -5 | 49 | 44 | 50 | 0.00 | -81 | 8 | 04/20/2025 11:30 PM |
| 38391 | -- | 3.89 | -5 | 51 | 44 | 51 | 0.10 | -82 | 7 | 04/20/2025 11:15 PM |
| 38390 | -- | 3.95 | -5 | 52 | 44 | 56 | 0.10 | -83 | 8 | 04/20/2025 11:00 PM |
| 38389 | -- | 3.90 | -5 | 53 | 44 | 54 | 0.00 | -82 | 8 | 04/20/2025 10:45 PM |
| 38388 | -- | 3.90 | -5 | 55 | 44 | 55 | 0.00 | -83 | 7 | 04/20/2025 10:30 PM |
| 38387 | -- | 3.95 | -5 | 56 | 44 | 57 | 0.00 | -86 | 6 | 04/20/2025 10:15 PM |